Vertical_Velocity
4 2 0 -1 -0 -2 -3 2 4 2 0 2 3 4 -2 7 1 2 -1 -3 4 2
2 1 2 2 -0 -1 -1 -0 -1 1 3 3 4 -2 -4 -3 1 3 0 1 0 -1
0 -0 1 2 2 2 2 1 1 1 2 0 3 -3 2 2 6 2 5 -2 1 1
-0 0 -0 -1 -1 0 2 2 2 1 3 1 1 3 0 2 3 -5 0 -0 5 2
1 1 -0 1 2 -0 0 0 1 3 5 6 4 4 4 -5 -1 -4 -8 -7 -2 -3
0 0 -0 2 0 -0 1 0 -1 1 0 1 0 -0 -2 -2 -3 2 0 -6 -2 -4
1 -1 -2 0 1 1 0 1 2 2 2 1 0 -1 -4 -2 2 2 1 4 -0 1
1 0 0 -1 0 0 -0 1 2 -0 2 2 -2 -1 1 0 2 0 2 2 3 1
-1 -1 1 0 -3 -1 2 1 2 4 3 -0 1 2 0 1 -2 -3 0 0 -1 -2
3 2 -0 0 -1 -2 1 1 -0 -1 0 2 -2 2 0 -0 -3 0 0 -2 -1 2
-0 2 1 2 1 1 1 2 2 0 -3 -1 1 -0 -0 8 0 -1 -1 -1 1 1
-1 2 -0 -3 -7 -5 -3 -1 -3 -2 0 1 0 0 1 1 5 4 -1 -1 1 1
3 3 -2 -4 -3 -2 -1 0 -1 -3 -1 -1 -2 -2 -1 2 -1 0 -1 -1 -0 0
3 -0 5 -0 -4 -3 -1 1 1 -1 -1 0 -1 0 -1 7 -0 -0 0 -1 -1 -2
Height
1438 1441 1444 1447 1450 1454 1458 1463 1466 1469 1472 1477 1481 1484 1488 1491 1492 1494 1497 1499 1499 1500
1438 1441 1443 1445 1447 1451 1454 1458 1462 1466 1469 1473 1477 1481 1484 1487 1490 1491 1493 1496 1497 1498
1436 1439 1441 1443 1445 1447 1450 1453 1457 1462 1466 1470 1473 1477 1480 1484 1486 1490 1491 1493 1495 1496
1433 1436 1438 1440 1442 1444 1447 1450 1454 1458 1462 1466 1470 1473 1477 1480 1483 1486 1488 1490 1492 1493
1431 1433 1435 1437 1438 1440 1444 1448 1451 1455 1459 1463 1466 1470 1473 1475 1478 1480 1483 1486 1488 1490
1429 1430 1432 1434 1436 1438 1441 1444 1448 1453 1457 1461 1464 1468 1470 1473 1475 1478 1478 1482 1483 1487
1428 1429 1431 1433 1435 1437 1439 1443 1445 1450 1454 1458 1462 1466 1468 1470 1473 1474 1477 1478 1479 1483
1428 1429 1431 1433 1436 1437 1440 1443 1446 1450 1454 1457 1460 1463 1465 1467 1469 1471 1474 1476 1478 1479
1429 1430 1432 1433 1436 1438 1440 1443 1447 1451 1453 1456 1458 1461 1462 1464 1466 1469 1471 1473 1475 1478
1431 1432 1433 1435 1437 1440 1443 1445 1447 1450 1452 1454 1457 1459 1460 1463 1466 1467 1469 1470 1473 1476
1434 1434 1435 1436 1437 1440 1443 1445 1446 1448 1451 1454 1455 1456 1460 1463 1464 1465 1467 1469 1471 1473
1438 1436 1435 1436 1440 1443 1444 1445 1445 1449 1451 1452 1453 1455 1458 1460 1462 1463 1464 1466 1468 1470
1439 1437 1436 1439 1441 1444 1445 1445 1445 1448 1450 1450 1452 1453 1455 1457 1459 1461 1463 1464 1466 1468
1440 1439 1439 1438 1441 1444 1444 1443 1444 1445 1447 1448 1449 1451 1453 1455 1456 1458 1460 1462 1463 1464